Time,TemperatureF,DewpointF,PressureIn,WindDirection,WindDirectionDegrees,WindSpeedMPH,WindSpeedGustMPH,Humidity,HourlyPrecipIn,Conditions,Clouds,dailyrainin,SolarRadiationWatts/m^2,SoftwareType,DateUTC
2013-01-21 00:02:00,38.0,33.0,-100.00,East,90,3.0,6.0,83,-99.99,,,0.00,0.000000,,2013-01-21 08:02:00,
2013-01-21 00:12:00,38.0,33.0,-100.00,East,90,3.0,6.0,83,-99.99,,,0.00,0.000000,,2013-01-21 08:12:00,
2013-01-21 00:43:00,37.0,32.0,-100.00,East,87,4.0,5.0,83,0.00,,,0.00,0.000000,,2013-01-21 08:43:00,
2013-01-21 00:53:00,37.0,32.0,-100.00,East,87,4.0,5.0,83,0.00,,,0.00,0.000000,,2013-01-21 08:53:00,
2013-01-21 01:02:00,37.0,32.0,-100.00,East,87,4.0,5.0,83,0.00,,,0.00,0.000000,,2013-01-21 09:02:00,
2013-01-21 01:11:00,37.0,32.0,-100.00,East,87,4.0,5.0,83,0.00,,,0.00,0.000000,,2013-01-21 09:11:00,
2013-01-21 01:43:00,37.0,33.0,-100.00,East,98,2.0,6.0,84,0.00,,,0.00,0.000000,,2013-01-21 09:43:00,
2013-01-21 01:53:00,37.0,33.0,-100.00,East,98,2.0,6.0,84,0.00,,,0.00,0.000000,,2013-01-21 09:53:00,
2013-01-21 02:02:00,37.0,33.0,-100.00,East,98,2.0,6.0,84,0.00,,,0.00,0.000000,,2013-01-21 10:02:00,
2013-01-21 02:12:00,37.0,33.0,-100.00,East,98,2.0,6.0,84,0.00,,,0.00,0.000000,,2013-01-21 10:12:00,
2013-01-21 02:33:00,37.0,32.0,-100.00,ENE,78,4.0,8.0,82,0.00,,,0.00,0.000000,,2013-01-21 10:33:00,
2013-01-21 02:43:00,37.0,32.0,-100.00,ENE,78,4.0,8.0,82,0.00,,,0.00,0.000000,,2013-01-21 10:43:00,
2013-01-21 02:52:00,37.0,32.0,-100.00,ENE,78,4.0,8.0,82,0.00,,,0.00,0.000000,,2013-01-21 10:52:00,
2013-01-21 03:02:00,37.0,32.0,-100.00,ENE,78,4.0,8.0,82,0.00,,,0.00,0.000000,,2013-01-21 11:02:00,
2013-01-21 03:11:00,37.0,32.0,-100.00,ENE,78,4.0,8.0,82,0.00,,,0.00,0.000000,,2013-01-21 11:11:00,
2013-01-21 03:33:00,35.0,31.0,-100.00,East,94,3.0,6.0,85,0.00,,,0.00,0.000000,,2013-01-21 11:33:00,
2013-01-21 03:43:00,35.0,31.0,-100.00,East,94,3.0,6.0,85,0.00,,,0.00,0.000000,,2013-01-21 11:43:00,
2013-01-21 03:53:00,35.0,31.0,-100.00,East,94,3.0,6.0,85,0.00,,,0.00,0.000000,,2013-01-21 11:53:00,
2013-01-21 04:02:00,35.0,31.0,-100.00,East,94,3.0,6.0,85,0.00,,,0.00,0.000000,,2013-01-21 12:02:00,
2013-01-21 04:12:00,35.0,31.0,-100.00,East,94,3.0,6.0,85,0.00,,,0.00,0.000000,,2013-01-21 12:12:00,
2013-01-21 04:43:00,34.0,31.0,-100.00,SE,132,1.0,6.0,87,0.00,,,0.00,0.000000,,2013-01-21 12:43:00,
2013-01-21 04:53:00,34.0,31.0,-100.00,SE,132,1.0,6.0,87,0.00,,,0.00,0.000000,,2013-01-21 12:53:00,
2013-01-21 05:02:00,34.0,31.0,-100.00,SE,132,1.0,6.0,87,0.00,,,0.00,0.000000,,2013-01-21 13:02:00,
2013-01-21 05:12:00,34.0,31.0,-100.00,SE,132,1.0,6.0,87,0.00,,,0.00,0.000000,,2013-01-21 13:12:00,
2013-01-21 05:33:00,33.0,29.0,-100.00,SE,130,1.0,5.0,86,0.00,,,-99.99,0.000000,,2013-01-21 13:33:00,
2013-01-21 05:43:00,33.0,29.0,-100.00,SE,130,1.0,5.0,86,0.00,,,-99.99,0.000000,,2013-01-21 13:43:00,
2013-01-21 05:53:00,33.0,29.0,-100.00,SE,130,1.0,5.0,86,0.00,,,-99.99,0.000000,,2013-01-21 13:53:00,
2013-01-21 06:03:00,33.0,29.0,-100.00,SE,130,1.0,5.0,86,0.00,,,-99.99,0.000000,,2013-01-21 14:03:00,
2013-01-21 06:12:00,33.0,29.0,-100.00,SE,130,1.0,5.0,86,0.00,,,-99.99,0.000000,,2013-01-21 14:12:00,
2013-01-21 06:33:00,31.0,28.0,-100.00,East,92,4.0,6.0,89,0.00,,,0.00,0.000000,,2013-01-21 14:33:00,
2013-01-21 06:43:00,31.0,28.0,-100.00,East,92,4.0,6.0,89,0.00,,,0.00,0.000000,,2013-01-21 14:43:00,
2013-01-21 06:53:00,31.0,28.0,-100.00,East,92,4.0,6.0,89,0.00,,,0.00,0.000000,,2013-01-21 14:53:00,
2013-01-21 07:03:00,31.0,28.0,-100.00,East,92,4.0,6.0,89,0.00,,,0.00,0.000000,,2013-01-21 15:03:00,
2013-01-21 07:12:00,31.0,28.0,-100.00,East,92,4.0,6.0,89,0.00,,,0.00,0.000000,,2013-01-21 15:12:00,
2013-01-21 07:33:00,30.0,27.0,-100.00,East,82,3.0,5.0,90,0.00,,,0.00,0.000000,,2013-01-21 15:33:00,
2013-01-21 07:43:00,30.0,27.0,-100.00,East,82,3.0,5.0,90,0.00,,,0.00,0.000000,,2013-01-21 15:43:00,
2013-01-21 07:53:00,30.0,27.0,-100.00,East,82,3.0,5.0,90,0.00,,,0.00,0.000000,,2013-01-21 15:53:00,
2013-01-21 08:03:00,30.0,27.0,-100.00,East,82,3.0,5.0,90,0.00,,,0.00,0.000000,,2013-01-21 16:03:00,
2013-01-21 08:11:00,30.0,27.0,-100.00,East,82,3.0,5.0,90,0.00,,,0.00,0.000000,,2013-01-21 16:11:00,
2013-01-21 08:33:00,34.0,31.0,-100.00,WSW,239,3.0,6.0,87,0.00,,,0.00,52.000000,,2013-01-21 16:33:00,
2013-01-21 08:43:00,34.0,31.0,-100.00,WSW,239,3.0,6.0,87,0.00,,,0.00,52.000000,,2013-01-21 16:43:00,
2013-01-21 08:53:00,34.0,31.0,-100.00,WSW,239,3.0,6.0,87,0.00,,,0.00,52.000000,,2013-01-21 16:53:00,
2013-01-21 09:02:00,34.0,31.0,-100.00,WSW,239,3.0,6.0,87,0.00,,,0.00,52.000000,,2013-01-21 17:02:00,
2013-01-21 09:12:00,34.0,31.0,-100.00,WSW,239,3.0,6.0,87,0.00,,,0.00,52.000000,,2013-01-21 17:12:00,
2013-01-21 09:33:00,44.0,35.0,-100.00,West,263,1.0,3.0,71,0.00,,,-99.99,211.000000,,2013-01-21 17:33:00,
2013-01-21 09:43:00,44.0,35.0,-100.00,West,263,1.0,3.0,71,0.00,,,-99.99,211.000000,,2013-01-21 17:43:00,
2013-01-21 09:53:00,44.0,35.0,-100.00,West,263,1.0,3.0,71,0.00,,,-99.99,211.000000,,2013-01-21 17:53:00,
2013-01-21 10:02:00,44.0,35.0,-100.00,West,263,1.0,3.0,71,0.00,,,-99.99,211.000000,,2013-01-21 18:02:00,
2013-01-21 10:11:00,44.0,35.0,-100.00,West,263,1.0,3.0,71,0.00,,,-99.99,211.000000,,2013-01-21 18:11:00,
2013-01-21 10:33:00,47.0,37.0,-100.00,SW,216,5.0,8.0,67,0.00,,,-99.99,363.000000,,2013-01-21 18:33:00,
2013-01-21 10:43:00,47.0,37.0,-100.00,SW,216,5.0,8.0,67,0.00,,,-99.99,363.000000,,2013-01-21 18:43:00,
2013-01-21 10:53:00,47.0,37.0,-100.00,SW,216,5.0,8.0,67,0.00,,,-99.99,363.000000,,2013-01-21 18:53:00,
2013-01-21 11:03:00,47.0,37.0,-100.00,SW,216,5.0,8.0,67,0.00,,,-99.99,363.000000,,2013-01-21 19:03:00,
2013-01-21 11:12:00,47.0,37.0,-100.00,SW,216,5.0,8.0,67,0.00,,,-99.99,363.000000,,2013-01-21 19:12:00,
2013-01-21 11:33:00,54.0,36.0,-100.00,SSW,212,5.0,8.0,51,0.00,,,0.00,479.000000,,2013-01-21 19:33:00,
2013-01-21 11:43:00,54.0,36.0,-100.00,SSW,212,5.0,8.0,51,0.00,,,0.00,479.000000,,2013-01-21 19:43:00,
2013-01-21 11:53:00,54.0,36.0,-100.00,SSW,212,5.0,8.0,51,0.00,,,0.00,479.000000,,2013-01-21 19:53:00,
2013-01-21 12:02:00,54.0,36.0,-100.00,SSW,212,5.0,8.0,51,0.00,,,0.00,479.000000,,2013-01-21 20:02:00,
2013-01-21 12:12:00,54.0,36.0,-100.00,SSW,212,5.0,8.0,51,0.00,,,0.00,479.000000,,2013-01-21 20:12:00,
2013-01-21 13:33:00,60.0,33.0,-100.00,SW,225,6.0,11.0,36,-99.99,,,0.00,554.000000,,2013-01-21 21:33:00,
2013-01-21 13:43:00,60.0,33.0,-100.00,SW,225,6.0,11.0,36,-99.99,,,0.00,554.000000,,2013-01-21 21:43:00,
2013-01-21 13:53:00,60.0,33.0,-100.00,SW,225,6.0,11.0,36,-99.99,,,0.00,554.000000,,2013-01-21 21:53:00,
2013-01-21 14:03:00,60.0,33.0,-100.00,SW,225,6.0,11.0,36,-99.99,,,0.00,554.000000,,2013-01-21 22:03:00,
2013-01-21 14:12:00,60.0,33.0,-100.00,SW,225,6.0,11.0,36,-99.99,,,0.00,554.000000,,2013-01-21 22:12:00,
2013-01-21 14:33:00,63.0,34.0,-100.00,WSW,250,6.0,9.0,34,0.00,,,0.00,504.000000,,2013-01-21 22:33:00,
2013-01-21 14:43:00,63.0,34.0,-100.00,WSW,250,6.0,9.0,34,0.00,,,0.00,504.000000,,2013-01-21 22:43:00,
2013-01-21 14:53:00,63.0,34.0,-100.00,WSW,250,6.0,9.0,34,0.00,,,0.00,504.000000,,2013-01-21 22:53:00,
2013-01-21 15:03:00,63.0,34.0,-100.00,WSW,250,6.0,9.0,34,0.00,,,0.00,504.000000,,2013-01-21 23:03:00,
2013-01-21 15:12:00,63.0,34.0,-100.00,WSW,250,6.0,9.0,34,0.00,,,0.00,504.000000,,2013-01-21 23:12:00,
2013-01-21 15:33:00,64.0,34.0,-100.00,WSW,245,4.0,8.0,33,0.00,,,0.00,362.000000,,2013-01-21 23:33:00,
2013-01-21 15:43:00,64.0,34.0,-100.00,WSW,245,4.0,8.0,33,0.00,,,0.00,362.000000,,2013-01-21 23:43:00,
2013-01-21 15:53:00,64.0,34.0,-100.00,WSW,245,4.0,8.0,33,0.00,,,0.00,362.000000,,2013-01-21 23:53:00,
2013-01-21 16:02:00,64.0,34.0,-100.00,WSW,245,4.0,8.0,33,0.00,,,0.00,362.000000,,2013-01-22 00:02:00,
2013-01-21 16:12:00,64.0,34.0,-100.00,WSW,245,4.0,8.0,33,0.00,,,0.00,362.000000,,2013-01-22 00:12:00,
2013-01-21 16:33:00,63.0,36.0,-100.00,West,270,4.0,6.0,36,0.00,,,0.00,228.000000,,2013-01-22 00:33:00,
2013-01-21 16:43:00,63.0,36.0,-100.00,West,270,4.0,6.0,36,0.00,,,0.00,228.000000,,2013-01-22 00:43:00,
2013-01-21 16:53:00,63.0,36.0,-100.00,West,270,4.0,6.0,36,0.00,,,0.00,228.000000,,2013-01-22 00:53:00,
2013-01-21 17:02:00,63.0,36.0,-100.00,West,270,4.0,6.0,36,0.00,,,0.00,228.000000,,2013-01-22 01:02:00,
2013-01-21 17:12:00,63.0,36.0,-100.00,West,270,4.0,6.0,36,0.00,,,0.00,228.000000,,2013-01-22 01:12:00,
2013-01-21 18:33:00,45.0,35.0,-100.00,ENE,68,3.0,4.0,69,-99.99,,,0.00,0.000000,,2013-01-22 02:33:00,
2013-01-21 19:42:00,40.0,34.0,-100.00,East,86,4.0,5.0,80,0.00,,,-99.99,0.000000,,2013-01-22 03:42:00,
2013-01-21 19:52:00,40.0,34.0,-100.00,East,86,4.0,5.0,80,0.00,,,-99.99,0.000000,,2013-01-22 03:52:00,
2013-01-21 20:33:00,38.0,34.0,-100.00,East,85,4.0,6.0,86,-99.99,,,0.00,0.000000,,2013-01-22 04:33:00,
2013-01-21 21:33:00,37.0,34.0,-100.00,ENE,77,4.0,6.0,89,0.00,,,0.00,0.000000,,2013-01-22 05:33:00,
2013-01-21 22:11:00,37.0,34.0,-100.00,ENE,77,4.0,6.0,89,0.00,,,0.00,0.000000,,2013-01-22 06:11:00,
2013-01-21 22:33:00,36.0,34.0,-100.00,East,82,4.0,6.0,91,0.00,,,0.00,0.000000,,2013-01-22 06:33:00,
2013-01-21 22:43:00,36.0,34.0,-100.00,East,82,4.0,6.0,91,0.00,,,0.00,0.000000,,2013-01-22 06:43:00,
2013-01-21 22:52:00,36.0,34.0,-100.00,East,82,4.0,6.0,91,0.00,,,0.00,0.000000,,2013-01-22 06:52:00,
2013-01-21 23:02:00,36.0,34.0,-100.00,East,82,4.0,6.0,91,0.00,,,0.00,0.000000,,2013-01-22 07:02:00,
2013-01-21 23:11:00,36.0,34.0,-100.00,East,82,4.0,6.0,91,0.00,,,0.00,0.000000,,2013-01-22 07:11:00,
2013-01-21 23:33:00,36.0,34.0,-100.00,East,89,3.0,5.0,92,0.00,,,0.00,0.000000,,2013-01-22 07:33:00,
2013-01-21 23:42:00,36.0,34.0,-100.00,East,89,3.0,5.0,92,0.00,,,0.00,0.000000,,2013-01-22 07:42:00,
2013-01-21 23:52:00,36.0,34.0,-100.00,East,89,3.0,5.0,92,0.00,,,0.00,0.000000,,2013-01-22 07:52:00,